Pittsfield, MA

3:48 PM EDT on October 18, 2019 (GMT -0400)
Pittsfield Municipal

Weather History for KPSF - September, 2019

Change the Weather History Date:

Wednesday, September 18, 2019

  Actual Average Record
Temperature  
Mean Temperature 54 °F 58 °F  
Max Temperature 66 °F 68 °F 85 °F (1946)
Min Temperature 40 °F 47 °F 32 °F (1959)
Degree Days  
Heating Degree Days 12 8  
Month to date heating degree days 88 92  
Since 1 July heating degree days 114 170  
Cooling Degree Days 0 0  
Month to date cooling degree days 15 16  
Year to date cooling degree days 407 286  
Growing Degree Days 4 (Base 50)    
Moisture  
Dew Point 42 °F    
Average Humidity 71    
Maximum Humidity 96    
Minimum Humidity 42    
Precipitation  
Precipitation 0.00 in 0.13 in 2.36 in (2004)
Month to date precipitation 2.54 2.17  
Year to date precipitation 30.60 31.95  
Sea Level Pressure  
Sea Level Pressure 30.24 in    
Wind  
Wind Speed 2 mph ()    
Max Wind Speed 13 mph    
Max Gust Speed 15 mph    
Visibility 10.0 miles    
Events      
T = Trace of Precipitation, MM = Missing Value Source: Averaged Metar Reports

Daily Weather History Graph

Daily Weather History Graph

Search for Another Location

Airport or City:

Astronomy

Sep. 18, 2019 Rise Set
Actual Time 6:35 AM EDT 6:57 PM EDT
Civil Twilight 6:07 AM EDT 7:26 PM EDT
Nautical Twilight 5:34 AM EDT 7:59 PM EDT
Astronomical Twilight 5:00 AM EDT 8:33 PM EDT
Moon 9:25 PM EDT 10:41 AM EDT
Length of Visible Light 13h 18m
Length of Day
12h 21m
Waning Gibbous, 82% of the Moon is Illuminated
Sep 18
Waning Gibbous
Sep 21
Last Quarter
Sep 28
New
Oct 5
First Quarter
Oct 13
Full

Hourly Weather History & Observations

Time (EDT) Temp. Windchill Dew Point Humidity Pressure Visibility Wind Dir Wind Speed Gust Speed Precip Events Conditions
12:54 AM 46.0 °F - 41.0 °F 83% 30.17 in 10.0 mi Calm Calm - N/A   Clear
1:54 AM 44.1 °F - 42.1 °F 93% 30.18 in 10.0 mi Calm Calm - N/A   Clear
2:54 AM 43.0 °F - 39.9 °F 89% 30.18 in 10.0 mi Calm Calm - N/A   Clear
3:54 AM 43.0 °F - 39.9 °F 89% 30.17 in 10.0 mi Calm Calm - N/A   Clear
4:54 AM 43.0 °F - 39.9 °F 89% 30.18 in 10.0 mi Calm Calm - N/A   Clear
5:54 AM 43.0 °F - 39.9 °F 89% 30.20 in 10.0 mi Calm Calm - N/A   Clear
6:17 AM 43.0 °F - 41.0 °F 93% 30.24 in 10.0 mi Calm Calm - N/A   Mostly Cloudy
6:54 AM 43.0 °F - 41.0 °F 93% 30.23 in 10.0 mi Calm Calm - N/A   Scattered Clouds
7:54 AM 50.0 °F - 45.0 °F 83% 30.25 in 10.0 mi Calm Calm - N/A   Clear
8:54 AM 54.0 °F - 48.0 °F 80% 30.25 in 10.0 mi ENE 4.6 mph - N/A   Clear
9:54 AM 55.9 °F - 46.0 °F 69% 30.25 in 10.0 mi NNE 5.8 mph - N/A   Partly Cloudy
10:41 AM 60.1 °F - 45.0 °F 57% 30.27 in 10.0 mi NE 6.9 mph - N/A   Scattered Clouds
10:54 AM 59.0 °F - 45.0 °F 60% 30.25 in 10.0 mi NE 5.8 mph - N/A   Partly Cloudy
11:54 AM 64.0 °F - 46.0 °F 52% 30.23 in 10.0 mi Variable 5.8 mph - N/A   Scattered Clouds
12:54 PM 64.0 °F - 44.1 °F 48% 30.23 in 10.0 mi NE 8.1 mph - N/A   Mostly Cloudy
1:54 PM 64.9 °F - 44.1 °F 47% 30.23 in 10.0 mi NE 8.1 mph - N/A   Clear
2:54 PM 63.0 °F - 43.0 °F 48% 30.23 in 10.0 mi East 5.8 mph - N/A   Scattered Clouds
3:54 PM 66.0 °F - 43.0 °F 43% 30.22 in 10.0 mi NE 5.8 mph - N/A   Clear
4:54 PM 64.9 °F - 42.1 °F 43% 30.24 in 10.0 mi NE 4.6 mph - N/A   Clear
5:54 PM 62.1 °F - 39.0 °F 43% 30.25 in 10.0 mi ENE 8.1 mph - N/A   Clear
6:54 PM 59.0 °F - 39.9 °F 49% 30.25 in 10.0 mi Calm Calm - N/A   Clear
7:54 PM 51.1 °F - 42.1 °F 71% 30.27 in 10.0 mi WNW 3.5 mph - N/A   Clear
8:54 PM 48.0 °F - 43.0 °F 83% 30.30 in 10.0 mi Calm Calm - N/A   Clear
9:54 PM 46.9 °F - 42.1 °F 83% 30.30 in 10.0 mi SW 3.5 mph - N/A   Clear
10:54 PM 44.1 °F - 41.0 °F 89% 30.31 in 10.0 mi Calm Calm - N/A   Clear
11:54 PM 41.0 °F 39.0 °F 37.9 °F 89% 30.30 in 10.0 mi SE 3.5 mph - N/A   Clear